User: anonymous   Login
Location: Cambridge (historical)
(38.6883°N, 119.0140°W)
Time: 14:55:47
(UTC+00:00)
Language:

XW-2C - Orbit

View from above orbital plane
View from above orbital plane
View from above satellite
View from above satellite

Ground track
Ground track

The orbit data is extracted from the following two-line orbital elements,

1 40906U 15049H   21268.50358480  .00001153  00000-0  61726-4 0  9996
2 40906  97.4893 269.6379 0013873 193.9380 266.5378 15.16974905332730
Epoch (UTC): 25 September 2021 12:05:09
Eccentricity: 0.0013873
inclination: 97.4893°
perigee height: 505 km
apogee height: 524 km
right ascension of ascending node: 269.6379°
argument of perigee: 193.9380°
revolutions per day: 15.16974905
mean anomaly at epoch: 266.5378°
orbit number at epoch: 33273

The dashed part of the orbit path shows where the satellite is in the earth's shadow,  

DLR